Regional Weather Roundup
Issued by NWS Northern Indiana

Home | Current Version | Previous Version | Graphics & Text | Print | Product List | Glossary On
Versions: 1 2 3 4 5 6 7 8 9 10 11 12 13 14 15 16 17 18 19 20 21 22 23 24 25 26 27 28 29 30 31 32 33 34 35 36 37 38 39 40 41 42 43 44 45 46 47 48 49 50
000
ASUS43 KIWX 171810
RWRIWX

KIWX WEATHER ROUNDUP
NATIONAL WEATHER SERVICE NORTHERN INDIANA
100 PM EST WED DEC 17 2014

NOTE: "FAIR" INDICATES FEW OR NO CLOUDS BELOW 12,000 FEET WITH NO
SIGNIFICANT WEATHER AND/OR OBSTRUCTIONS TO VISIBILITY.

* THESE STATIONS ARE NOT UNDER NWS QUALITY CONTROL. THEY ALSO MAY NOT
  REPORT WEATHER SUCH AS PRECIPITATION OR FOG.

INZ001>027-171900-
NORTHERN INDIANA

CITY           SKY/WX    TMP DP  RH WIND       PRES   REMARKS
GARY*          CLOUDY    28  18  64 W12       30.25F WCI  18
VALPARAISO     CLOUDY    25  19  78 W13       30.22F WCI  14
6HR MIN TEMP:  25; 6HR MAX TEMP:  27;

MICHIGAN CITY* CLOUDY    28  19  69 W9        30.22S WCI  20
LAPORTE*       CLOUDY    28  24  85 W9        30.21F FOG     WCI  19
6HR MIN TEMP:  27; 6HR MAX TEMP:  30;

KNOX*          CLOUDY    26  21  82 W10G17    30.22S WCI  16
6HR MIN TEMP:   9; 6HR MAX TEMP:  81;

SOUTH BEND     CLOUDY    28  21  75 W13       30.19F WCI  17
6HR MIN TEMP:  28; 6HR MAX TEMP:  30;

ELKHART*       CLOUDY    28  19  69 W13       30.19S WCI  18
GOSHEN         CLOUDY    28  22  78 W14       30.18S WCI  17
6HR MIN TEMP:  27; 6HR MAX TEMP:  30;

MONTICELLO*    CLOUDY    25  22  88 W12       30.24S WCI  14
6HR MIN TEMP:  25; 6HR MAX TEMP:  27;

LOGANSPORT*    CLOUDY    27  21  80 W12G20    30.23F WCI  16
ROCHESTER*     CLOUDY    28  25  86 W10       30.22S WCI  19
WARSAW*        CLOUDY    28  23  80 W10       30.19F FOG     WCI  19
ANGOLA*        CLOUDY    27  23  86 W8        30.13F WCI  18
FORT WAYNE     LGT SNOW  28  23  81 W17       30.18F WCI  16
6HR MIN TEMP:  27; 6HR MAX TEMP:  31; 6HR PCP: TRACE;

HUNTINGTON*    CLOUDY    26  22  86 NW8       30.19F WCI  17
6HR MIN TEMP:  26; 6HR MAX TEMP:  29;

PERU/GRISSOM   CLOUDY    26  26 100 W14       30.21F WCI  14
6HR MIN TEMP:  25; 6HR MAX TEMP:  28;

MARION*        CLOUDY    26  23  91 W15       30.21F WCI  13
6HR MIN TEMP:  22; 6HR MAX TEMP:  50;


$$
INZ028>050-171900-
CENTRAL INDIANA

CITY           SKY/WX    TMP DP  RH WIND       PRES   REMARKS
LAFAYETTE      CLOUDY    23  19  85 W8        30.26F WCI  14
6HR MIN TEMP:  23; 6HR MAX TEMP:  25;

KOKOMO*        CLOUDY    25  21  86 W16       30.22F WCI  12
6HR MIN TEMP:  25; 6HR MAX TEMP:  28;

MUNCIE*        CLOUDY    26  23  88 W13       30.20F WCI  15
6HR MIN TEMP:  25; 6HR MAX TEMP:  30;

INDIANAPOLIS   CLOUDY    25  21  85 W13       30.24F WCI  14
6HR MIN TEMP:  25; 6HR MAX TEMP:  26;


$$
MIZ043>046-050>051-056>058-064>065-071>073-077>080-171900-
SOUTHWEST LOWER MICHIGAN

CITY           SKY/WX    TMP DP  RH WIND       PRES   REMARKS
BATTLE CREEK   CLOUDY    30  21  69 W16G22    30.11F WCI  19
6HR MIN TEMP:  30; 6HR MAX TEMP:  31;

BENTON HARBOR  CLOUDY    28  21  75 W15G23    30.18F WCI  16
6HR MIN TEMP:  27; 6HR MAX TEMP:  29;

COLDWATER*     CLOUDY    28  22  78 W17       30.12F WCI  16
6HR MIN TEMP:  28; 6HR MAX TEMP:  31;

HILLSDALE*     CLOUDY    29  25  85 W17       30.09F WCI  16
6HR MIN TEMP:  29; 6HR MAX TEMP:  31;

HOLLAND        CLOUDY    31  21  66 W14G24    30.14F WCI  21
6HR MIN TEMP:  31; 6HR MAX TEMP:  33; 6HR PCP: TRACE;

GRAND RAPIDS   FLURRIES  29  20  69 W13       30.10F WCI  19
6HR MIN TEMP:  29; 6HR MAX TEMP:  30; 6HR PCP: TRACE;

KALAMAZOO      CLOUDY    30  21  69 W13       30.13F WCI  20
6HR MIN TEMP:  29; 6HR MAX TEMP:  31;

STURGIS*       CLOUDY    27  23  86 W12G18    30.14F WCI  16
THREE RIVERS*  CLOUDY    29  22  74 W12       30.15F WCI  19
6HR MIN TEMP:  28; 6HR MAX TEMP:  31;


$$
OHZ001>008-015>018-024>025-171900-
NORTHWEST OHIO

CITY           SKY/WX    TMP DP  RH WIND       PRES   REMARKS
WAUSEON*       CLOUDY    30  23  74 W17G26    30.12F WCI  18
FINDLAY        CLOUDY    32  25  75 W15G26    30.13F WCI  22
6HR MIN TEMP:  31; 6HR MAX TEMP:  33;

TOLEDO EXPRESS CLOUDY    30  22  72 W21G26    30.12F WCI  17
6HR MIN TEMP:  30; 6HR MAX TEMP:  33;

TOLEDO METCALF CLOUDY    32  22  66 W20G28    30.12F WCI  20
6HR MIN TEMP:  32; 6HR MAX TEMP:  35;

LIMA             N/A    N/A N/A N/A MISG      30.15F

$$
AND FOR LAKE MICHIGAN COASTAL AND OPEN LAKE BUOY OBSERVATIONS

STATION/POSITION TEMP    WIND        PRES    VSBY  WAVE
                 AIR SEA DIR/SP/G                  HT/PER
                 (F)     (DEG/KT/KT) (MB)    (MI)  (FT/S)
CALUMET HARBOR    27     260/  6/ 12 1022.5F
SAINT JOSEPH      30     260/ 15/ 20 1022.7R

$$
&&



USA.gov is the U.S. government's official web portal to all federal, state and local government web resources and services.